| time (UTC) | temp F | wind direction | speed MPH | gust MPH | rain 1hr in | rain 24hr in | rain mn in | humidity % | barometer mb |
| 20260506112950 | 55 | 93 | 2.0 | 8.0 | 0.00 | 0.00 | 0.00 | 49 | |
| 20260506112449 | 55 | 108 | 3.0 | 10.0 | 0.00 | 0.00 | 0.00 | 50 | |
| 20260506111949 | 55 | 87 | 3.0 | 8.0 | 0.00 | 0.00 | 0.00 | 49 | |
| 20260506111449 | 53 | 104 | 3.0 | 7.0 | 0.00 | 0.00 | 0.00 | 50 | |
| 20260506110948 | 53 | 96 | 3.0 | 7.0 | 0.00 | 0.00 | 0.00 | 51 | |
| 20260506105948 | 54 | 28 | 3.0 | 9.0 | 0.00 | 0.00 | 0.00 | 50 | |
| 20260506105448 | 53 | 107 | 3.0 | 9.0 | 0.00 | 0.00 | 0.00 | 51 | |
| 20260506104947 | 53 | 101 | 4.0 | 9.0 | 0.00 | 0.00 | 0.00 | 52 | |
| 20260506104447 | 53 | 97 | 5.0 | 9.0 | 0.00 | 0.00 | 0.00 | 52 | |
| 20260506103947 | 52 | 108 | 5.0 | 12.0 | 0.00 | 0.00 | 0.00 | 52 | |
| 20260506103446 | 53 | 79 | 5.0 | 10.0 | 0.00 | 0.00 | 0.00 | 51 | |
| 20260506102946 | 54 | 83 | 3.0 | 8.0 | 0.00 | 0.00 | 0.00 | 52 | |
| 20260506102446 | 53 | 100 | 3.0 | 8.0 | 0.00 | 0.00 | 0.00 | 50 | |
| 20260506101946 | 53 | 69 | 3.0 | 9.0 | 0.00 | 0.00 | 0.00 | 51 | |
| 20260506101445 | 52 | 101 | 3.0 | 8.0 | 0.00 | 0.00 | 0.00 | 53 | |
| 20260506100945 | 52 | 107 | 4.0 | 9.0 | 0.00 | 0.00 | 0.00 | 54 | |
| 20260506100445 | 52 | 76 | 3.0 | 7.0 | 0.00 | 0.00 | 0.00 | 56 | |
| 20260506095944 | 51 | 101 | 3.0 | 7.0 | 0.00 | 0.00 | 0.00 | 57 | |
| 20260506095444 | 51 | 90 | 3.0 | 8.0 | 0.00 | 0.00 | 0.00 | 57 | |
| 20260506094944 | 51 | 105 | 3.0 | 8.0 | 0.00 | 0.00 | 0.00 | 58 | |
| 20260506094444 | 51 | 103 | 4.0 | 8.0 | 0.00 | 0.00 | 0.00 | 59 | |
| 20260506093943 | 52 | 121 | 4.0 | 7.0 | 0.00 | 0.00 | 0.00 | 59 | |
| 20260506092943 | 52 | 73 | 2.0 | 7.0 | 0.00 | 0.00 | 0.00 | 58 | |
| 20260506092442 | 52 | 114 | 3.0 | 6.0 | 0.00 | 0.00 | 0.00 | 59 | |
| 20260506091942 | 53 | 91 | 3.0 | 7.0 | 0.00 | 0.00 | 0.00 | 60 | |
| 20260506091442 | 51 | 73 | 1.0 | 6.0 | 0.00 | 0.00 | 0.00 | 60 | |
| 20260506090942 | 51 | 60 | 2.0 | 5.0 | 0.00 | 0.00 | 0.00 | 61 | |
| 20260506090441 | 51 | 55 | 3.0 | 9.0 | 0.00 | 0.00 | 0.00 | 62 | |
| 20260506085941 | 50 | 86 | 2.0 | 5.0 | 0.00 | 0.00 | 0.00 | 62 | |
| 20260506085441 | 50 | 76 | 3.0 | 8.0 | 0.00 | 0.00 | 0.00 | 62 | |
| 20260506084940 | 50 | 82 | 4.0 | 8.0 | 0.00 | 0.00 | 0.00 | 62 | |
| 20260506082939 | 50 | 87 | 3.0 | 6.0 | 0.00 | 0.00 | 0.00 | 63 | |
| 20260506081438 | 50 | 118 | 2.0 | 7.0 | 0.00 | 0.00 | 0.00 | 64 | |
| 20260506080937 | 49 | 148 | 1.0 | 4.0 | 0.00 | 0.00 | 0.00 | 65 | |
| 20260506080437 | 48 | 104 | 2.0 | 6.0 | 0.00 | 0.00 | 0.00 | 65 | |
| 20260506073435 | 48 | 98 | 3.0 | 6.0 | 0.00 | 0.00 | 0.00 | 69 | |
| 20260506072935 | 48 | 87 | 4.0 | 10.0 | 0.00 | 0.00 | 0.00 | 69 | |
| 20260506072435 | 48 | 73 | 4.0 | 8.0 | 0.00 | 0.00 | 0.00 | 70 | |
| 20260506071934 | 47 | 104 | 5.0 | 10.0 | 0.00 | 0.00 | 0.00 | 69 | |
| 20260506070934 | 48 | 89 | 3.0 | 6.0 | 0.00 | 0.00 | 0.00 | 71 | |
| 20260506070434 | 48 | 68 | 3.0 | 7.0 | 0.00 | 0.00 | 0.00 | 71 | |
| 20260506062431 | 47 | 103 | 2.0 | 5.0 | 0.00 | 0.00 | 0.00 | 73 | |
| 20260506061931 | 46 | 111 | 2.0 | 7.0 | 0.00 | 0.00 | 0.00 | 73 | |
| 20260506061431 | 46 | 91 | 2.0 | 8.0 | 0.00 | 0.00 | 0.00 | 73 | |
| 20260506060930 | 46 | 104 | 3.0 | 7.0 | 0.00 | 0.00 | 0.00 | 74 | |
| 20260506060430 | 46 | 129 | 2.0 | 8.0 | 0.00 | 0.00 | 0.00 | 74 | |
| 20260506050927 | 47 | 84 | 2.0 | 7.0 | 0.00 | 0.00 | 0.00 | 74 | |
| 20260506050427 | 47 | 87 | 2.0 | 7.0 | 0.00 | 0.00 | 0.00 | 74 | |
| 20260506044926 | 47 | 114 | 2.0 | 8.0 | 0.00 | 0.00 | 0.00 | 73 | |
| 20260506044426 | 48 | 101 | 4.0 | 9.0 | 0.00 | 0.00 | 0.00 | 73 | |
| 20260506043925 | 48 | 97 | 1.0 | 5.0 | 0.00 | 0.00 | 0.00 | 74 | |
| 20260506043425 | 48 | 128 | 3.0 | 7.0 | 0.00 | 0.00 | 0.00 | 74 | |
| 20260506042925 | 48 | 82 | 2.0 | 6.0 | 0.00 | 0.00 | 0.00 | 73 | |
| 20260506042425 | 48 | 136 | 1.0 | 4.0 | 0.00 | 0.00 | 0.00 | 73 | |
| 20260506041924 | 48 | 101 | 2.0 | 7.0 | 0.00 | 0.00 | 0.00 | 72 | |
| 20260506041424 | 48 | 134 | 1.0 | 5.0 | 0.00 | 0.00 | 0.00 | 72 | |
| 20260506040924 | 48 | 103 | 1.0 | 5.0 | 0.00 | 0.00 | 0.00 | 72 | |
| 20260506040423 | 48 | 104 | 2.0 | 6.0 | 0.00 | 0.00 | 0.00 | 72 | |
| 20260506035923 | 48 | 128 | 2.0 | 7.0 | 0.00 | 0.00 | 0.00 | 71 | |
| 20260506035423 | 48 | 115 | 3.0 | 7.0 | 0.00 | 0.00 | 0.00 | 71 | |
| 20260506034923 | 48 | 111 | 3.0 | 10.0 | 0.00 | 0.00 | 0.00 | 71 | |
| 20260506034422 | 48 | 79 | 4.0 | 7.0 | 0.00 | 0.00 | 0.00 | 72 | |
| 20260506033922 | 48 | 59 | 4.0 | 8.0 | 0.00 | 0.00 | 0.00 | 72 | |
| 20260506033422 | 48 | 84 | 1.0 | 6.0 | 0.00 | 0.00 | 0.00 | 74 | |
| 20260506032921 | 48 | 101 | 1.0 | 5.0 | 0.00 | 0.00 | 0.00 | 74 | |
| 20260506032421 | 48 | 89 | 3.0 | 7.0 | 0.00 | 0.00 | 0.00 | 75 | |
| 20260506031921 | 48 | 96 | 4.0 | 7.0 | 0.00 | 0.00 | 0.00 | 74 | |
| 20260506031421 | 48 | 120 | 3.0 | 7.0 | 0.00 | 0.00 | 0.00 | 74 | |
| 20260506030920 | 48 | 86 | 3.0 | 8.0 | 0.00 | 0.00 | 0.00 | 75 | |
| 20260506030420 | 48 | 94 | 4.0 | 7.0 | 0.00 | 0.00 | 0.00 | 74 | |
| 20260506025920 | 48 | 110 | 2.0 | 6.0 | 0.00 | 0.00 | 0.00 | 73 | |
| 20260506025419 | 48 | 82 | 3.0 | 8.0 | 0.00 | 0.00 | 0.00 | 73 | |
| 20260506024919 | 48 | 98 | 2.0 | 5.0 | 0.00 | 0.00 | 0.00 | 72 | |
| 20260506024419 | 48 | 83 | 3.0 | 7.0 | 0.00 | 0.00 | 0.00 | 72 | |
| 20260506023919 | 49 | 103 | 2.0 | 6.0 | 0.00 | 0.00 | 0.00 | 72 | |
| 20260506023418 | 49 | 118 | 3.0 | 7.0 | 0.00 | 0.00 | 0.00 | 71 | |
| 20260506022918 | 49 | 105 | 1.0 | 4.0 | 0.00 | 0.00 | 0.00 | 71 | |
| 20260506022418 | 49 | 111 | 2.0 | 7.0 | 0.00 | 0.00 | 0.00 | 71 | |
| 20260506021917 | 49 | 129 | 3.0 | 9.0 | 0.00 | 0.00 | 0.00 | 71 | |
| 20260506021417 | 49 | 122 | 3.0 | 9.0 | 0.00 | 0.00 | 0.00 | 70 | |
| 20260506020917 | 49 | 118 | 2.0 | 8.0 | 0.00 | 0.00 | 0.00 | 70 | |
| 20260506020417 | 50 | 80 | 4.0 | 10.0 | 0.00 | 0.00 | 0.00 | 70 | |
| 20260506015916 | 49 | 75 | 2.0 | 8.0 | 0.00 | 0.00 | 0.00 | 70 | |
| 20260506015416 | 50 | 149 | 2.0 | 5.0 | 0.00 | 0.00 | 0.00 | 71 | |
| 20260506014916 | 50 | 89 | 4.0 | 9.0 | 0.00 | 0.00 | 0.00 | 71 | |
| 20260506014416 | 51 | 90 | 3.0 | 6.0 | 0.00 | 0.00 | 0.00 | 72 | |
| 20260506013915 | 49 | 128 | 4.0 | 7.0 | 0.00 | 0.00 | 0.00 | 72 | |
| 20260506013415 | 49 | 110 | 5.0 | 10.0 | 0.00 | 0.00 | 0.00 | 72 | |
| 20260506012915 | 50 | 90 | 5.0 | 10.0 | 0.00 | 0.00 | 0.00 | 72 | |
| 20260506012414 | 50 | 97 | 2.0 | 9.0 | 0.00 | 0.00 | 0.00 | 72 | |
| 20260506011914 | 50 | 86 | 3.0 | 9.0 | 0.00 | 0.00 | 0.00 | 73 | |
| 20260506011414 | 50 | 91 | 4.0 | 9.0 | 0.00 | 0.00 | 0.00 | 72 | |
| 20260506010914 | 50 | 97 | 5.0 | 9.0 | 0.00 | 0.00 | 0.00 | 72 | |
| 20260506010414 | 51 | 117 | 3.0 | 7.0 | 0.00 | 0.00 | 0.00 | 72 | |
| 20260506005913 | 51 | 150 | 3.0 | 6.0 | 0.00 | 0.00 | 0.00 | 72 | |
| 20260506005413 | 51 | 149 | 4.0 | 11.0 | 0.00 | 0.00 | 0.00 | 72 | |
| 20260506004912 | 51 | 120 | 3.0 | 7.0 | 0.00 | 0.00 | 0.00 | 72 | |
| 20260506004412 | 51 | 110 | 5.0 | 12.0 | 0.00 | 0.00 | 0.00 | 72 | |
| 20260506003912 | 51 | 118 | 4.0 | 8.0 | 0.00 | 0.00 | 0.00 | 72 | |
| 20260506003412 | 51 | 93 | 2.0 | 9.0 | 0.00 | 0.00 | 0.00 | 72 | |
| 20260506002911 | 51 | 152 | 4.0 | 9.0 | 0.00 | 0.00 | 0.00 | 72 | |
| 20260506002411 | 51 | 115 | 3.0 | 7.0 | 0.00 | 0.00 | 0.00 | 71 | |
| 20260506001911 | 51 | 152 | 4.0 | 9.0 | 0.00 | 0.00 | 0.00 | 71 | |
| 20260506001410 | 51 | 174 | 4.0 | 9.0 | 0.00 | 0.00 | 0.00 | 71 | |
| 20260506000910 | 52 | 146 | 4.0 | 10.0 | 0.00 | 0.00 | 0.00 | 70 | |
| 20260506000410 | 52 | 110 | 4.0 | 9.0 | 0.00 | 0.00 | 0.00 | 70 | |
| 20260505235910 | 51 | 150 | 5.0 | 11.0 | 0.00 | 0.00 | 0.00 | 70 | |
| 20260505235409 | 51 | 138 | 4.0 | 10.0 | 0.00 | 0.00 | 0.00 | 70 | |
| 20260505234909 | 52 | 118 | 3.0 | 11.0 | 0.00 | 0.00 | 0.00 | 69 | |
| 20260505234407 | 52 | 131 | 5.0 | 12.0 | 0.00 | 0.00 | 0.00 | 70 | |
| 20260505233906 | 52 | 124 | 3.0 | 8.0 | 0.00 | 0.00 | 0.00 | 70 | |
| 20260505233406 | 52 | 108 | 4.0 | 10.0 | 0.00 | 0.00 | 0.00 | 70 | |
| 20260505232906 | 53 | 83 | 3.0 | 10.0 | 0.00 | 0.00 | 0.00 | 70 | |
| 20260505232405 | 52 | 134 | 5.0 | 11.0 | 0.00 | 0.00 | 0.00 | 69 | |
| 20260505231905 | 52 | 188 | 4.0 | 9.0 | 0.00 | 0.00 | 0.00 | 69 | |
| 20260505231405 | 53 | 91 | 3.0 | 9.0 | 0.00 | 0.00 | 0.00 | 69 | |
| 20260505230904 | 52 | 127 | 3.0 | 8.0 | 0.00 | 0.00 | 0.00 | 68 | |
| 20260505230404 | 52 | 146 | 4.0 | 9.0 | 0.00 | 0.00 | 0.00 | 68 | |
| 20260505225904 | 53 | 142 | 4.0 | 11.0 | 0.00 | 0.00 | 0.00 | 68 | |
| 20260505225403 | 53 | 148 | 2.0 | 7.0 | 0.00 | 0.00 | 0.00 | 68 | |
| 20260505224903 | 53 | 153 | 2.0 | 7.0 | 0.00 | 0.00 | 0.00 | 67 | |
| 20260505224403 | 53 | 35 | 1.0 | 6.0 | 0.00 | 0.00 | 0.00 | 67 | |
| 20260505223902 | 53 | 129 | 2.0 | 6.0 | 0.00 | 0.00 | 0.00 | 66 | |
| 20260505223402 | 53 | 68 | 4.0 | 9.0 | 0.00 | 0.00 | 0.00 | 66 | |
| 20260505222902 | 53 | 145 | 4.0 | 9.0 | 0.00 | 0.00 | 0.00 | 66 | |
| 20260505222402 | 53 | 146 | 3.0 | 9.0 | 0.00 | 0.00 | 0.00 | 66 | |
| 20260505221901 | 54 | 97 | 4.0 | 9.0 | 0.00 | 0.00 | 0.00 | 65 | |
| 20260505221401 | 52 | 86 | 3.0 | 8.0 | 0.00 | 0.00 | 0.00 | 64 | |
| 20260505220901 | 53 | 89 | 5.0 | 10.0 | 0.00 | 0.00 | 0.00 | 64 | |
| 20260505220401 | 53 | 135 | 2.0 | 5.0 | 0.00 | 0.00 | 0.00 | 64 | |
| 20260505215900 | 54 | 44 | 1.0 | 5.0 | 0.00 | 0.00 | 0.00 | 63 | |
| 20260505215359 | 54 | 52 | 2.0 | 5.0 | 0.00 | 0.00 | 0.00 | 63 | |
| 20260505214859 | 54 | 41 | 1.0 | 4.0 | 0.00 | 0.00 | 0.00 | 63 | |
| 20260505214359 | 54 | 103 | 0.0 | 2.0 | 0.00 | 0.00 | 0.00 | 62 | |
| 20260505213859 | 54 | 52 | 1.0 | 3.0 | 0.00 | 0.00 | 0.00 | 62 | |
| 20260505213358 | 54 | 89 | 1.0 | 4.0 | 0.00 | 0.00 | 0.00 | 62 | |
| 20260505212858 | 54 | 56 | 1.0 | 5.0 | 0.00 | 0.00 | 0.00 | 61 | |
| 20260505212358 | 54 | 46 | 1.0 | 6.0 | 0.00 | 0.00 | 0.00 | 61 | |
| 20260505211857 | 54 | 7 | 1.0 | 4.0 | 0.00 | 0.00 | 0.00 | 60 | |
| 20260505211357 | 54 | 55 | 1.0 | 5.0 | 0.00 | 0.00 | 0.00 | 60 | |
| 20260505210857 | 55 | 46 | 1.0 | 4.0 | 0.00 | 0.00 | 0.00 | 59 | |
| 20260505210357 | 54 | 15 | 1.0 | 4.0 | 0.00 | 0.00 | 0.00 | 59 | |
| 20260505205856 | 54 | 124 | 1.0 | 5.0 | 0.00 | 0.00 | 0.00 | 58 | |
| 20260505205356 | 55 | 38 | 2.0 | 7.0 | 0.00 | 0.00 | 0.00 | 58 | |
| 20260505204856 | 55 | 28 | 1.0 | 6.0 | 0.00 | 0.00 | 0.00 | 58 | |
| 20260505204356 | 55 | 76 | 1.0 | 4.0 | 0.00 | 0.00 | 0.00 | 58 | |
| 20260505203855 | 55 | 55 | 2.0 | 6.0 | 0.00 | 0.00 | 0.00 | 57 | |
| 20260505203355 | 55 | 75 | 1.0 | 4.0 | 0.00 | 0.00 | 0.00 | 57 | |
| 20260505202855 | 55 | 23 | 1.0 | 5.0 | 0.00 | 0.00 | 0.00 | 57 | |
| 20260505201854 | 56 | 63 | 1.0 | 5.0 | 0.00 | 0.00 | 0.00 | 57 | |
| 20260505201354 | 56 | 62 | 3.0 | 6.0 | 0.00 | 0.00 | 0.00 | 56 | |
| 20260505200854 | 56 | 49 | 2.0 | 6.0 | 0.00 | 0.00 | 0.00 | 56 | |
| 20260505200353 | 56 | 82 | 2.0 | 6.0 | 0.00 | 0.00 | 0.00 | 56 | |
| 20260505195853 | 56 | 84 | 1.0 | 4.0 | 0.00 | 0.00 | 0.00 | 55 | |
| 20260505195353 | 56 | 75 | 1.0 | 5.0 | 0.00 | 0.00 | 0.00 | 54 | |
| 20260505194852 | 57 | 65 | 1.0 | 6.0 | 0.00 | 0.00 | 0.00 | 54 | |
| 20260505194352 | 56 | 68 | 1.0 | 3.0 | 0.00 | 0.00 | 0.00 | 54 | |
| 20260505193852 | 56 | 49 | 1.0 | 7.0 | 0.00 | 0.00 | 0.00 | 53 | |
| 20260505193352 | 56 | 59 | 1.0 | 4.0 | 0.00 | 0.00 | 0.00 | 54 | |
| 20260505192851 | 57 | 52 | 1.0 | 5.0 | 0.00 | 0.00 | 0.00 | 54 | |
| 20260505192351 | 56 | 59 | 2.0 | 5.0 | 0.00 | 0.00 | 0.00 | 54 | |
| 20260505191851 | 57 | 30 | 2.0 | 5.0 | 0.00 | 0.00 | 0.00 | 53 | |
| 20260505191350 | 57 | 30 | 2.0 | 5.0 | 0.00 | 0.00 | 0.00 | 52 | |
| 20260505190850 | 57 | 75 | 2.0 | 6.0 | 0.00 | 0.00 | 0.00 | 51 | |
| 20260505190350 | 57 | 94 | 3.0 | 8.0 | 0.00 | 0.00 | 0.00 | 50 | |
| 20260505185849 | 57 | 103 | 2.0 | 7.0 | 0.00 | 0.00 | 0.00 | 50 | |
| 20260505185349 | 58 | 142 | 2.0 | 6.0 | 0.00 | 0.00 | 0.00 | 50 | |
| 20260505184849 | 58 | 93 | 4.0 | 9.0 | 0.00 | 0.00 | 0.00 | 50 | |
| 20260505184349 | 58 | 73 | 4.0 | 10.0 | 0.00 | 0.00 | 0.00 | 50 | |
| 20260505183348 | 58 | 117 | 3.0 | 7.0 | 0.00 | 0.00 | 0.00 | 50 | |
| 20260505182848 | 58 | 60 | 4.0 | 10.0 | 0.00 | 0.00 | 0.00 | 49 | |
| 20260505181847 | 58 | 113 | 2.0 | 7.0 | 0.00 | 0.00 | 0.00 | 48 | |
| 20260505181347 | 59 | 118 | 2.0 | 6.0 | 0.00 | 0.00 | 0.00 | 48 | |
| 20260505180847 | 59 | 108 | 2.0 | 6.0 | 0.00 | 0.00 | 0.00 | 48 | |
| 20260505180346 | 59 | 8 | 2.0 | 6.0 | 0.00 | 0.00 | 0.00 | 48 | |
| 20260505175846 | 59 | 62 | 2.0 | 5.0 | 0.00 | 0.00 | 0.00 | 48 | |
| 20260505175346 | 59 | 90 | 2.0 | 6.0 | 0.00 | 0.00 | 0.00 | 49 | |
| 20260505174846 | 59 | 84 | 3.0 | 6.0 | 0.00 | 0.00 | 0.00 | 49 | |
| 20260505174345 | 59 | 107 | 3.0 | 8.0 | 0.00 | 0.00 | 0.00 | 48 | |
| 20260505173845 | 59 | 21 | 2.0 | 6.0 | 0.00 | 0.00 | 0.00 | 47 | |
| 20260505173345 | 59 | 18 | 2.0 | 7.0 | 0.00 | 0.00 | 0.00 | 47 | |
| 20260505172844 | 59 | 21 | 2.0 | 6.0 | 0.00 | 0.00 | 0.00 | 46 | |
| 20260505172344 | 60 | 70 | 2.0 | 6.0 | 0.00 | 0.00 | 0.00 | 46 | |
| 20260505171844 | 59 | 80 | 2.0 | 7.0 | 0.00 | 0.00 | 0.00 | 46 | |
| 20260505171344 | 59 | 23 | 4.0 | 8.0 | 0.00 | 0.00 | 0.00 | 46 | |
| 20260505170843 | 59 | 34 | 3.0 | 7.0 | 0.00 | 0.00 | 0.00 | 45 | |
| 20260505170343 | 59 | 30 | 3.0 | 8.0 | 0.00 | 0.00 | 0.00 | 46 | |
| 20260505165843 | 59 | 357 | 3.0 | 10.0 | 0.00 | 0.00 | 0.00 | 46 | |
| 20260505165342 | 59 | 89 | 2.0 | 7.0 | 0.00 | 0.00 | 0.00 | 46 | |
| 20260505164842 | 59 | 48 | 4.0 | 9.0 | 0.00 | 0.00 | 0.00 | 46 | |
| 20260505163842 | 59 | 69 | 3.0 | 8.0 | 0.00 | 0.00 | 0.00 | 46 | |
| 20260505163341 | 59 | 100 | 2.0 | 6.0 | 0.00 | 0.00 | 0.00 | 46 | |
| 20260505162841 | 59 | 23 | 3.0 | 6.0 | 0.00 | 0.00 | 0.00 | 46 | |
| 20260505162340 | 60 | 38 | 3.0 | 9.0 | 0.00 | 0.00 | 0.00 | 46 | |
| 20260505161340 | 59 | 89 | 3.0 | 8.0 | 0.00 | 0.00 | 0.00 | 47 | |
| 20260505160839 | 59 | 52 | 4.0 | 10.0 | 0.00 | 0.00 | 0.00 | 46 | |
| 20260505160339 | 59 | 68 | 3.0 | 9.0 | 0.00 | 0.00 | 0.00 | 46 | |
| 20260505153337 | 60 | 76 | 2.0 | 8.0 | 0.00 | 0.00 | 0.00 | 46 | |
| 20260505152837 | 60 | 41 | 2.0 | 6.0 | 0.00 | 0.00 | 0.00 | 46 | |
| 20260505152337 | 60 | 72 | 3.0 | 8.0 | 0.00 | 0.00 | 0.00 | 46 | |
| 20260505151836 | 60 | 96 | 3.0 | 7.0 | 0.00 | 0.00 | 0.00 | 46 | |
| 20260505151336 | 60 | 103 | 2.0 | 7.0 | 0.00 | 0.00 | 0.00 | 47 | |
| 20260505150836 | 60 | 83 | 3.0 | 9.0 | 0.00 | 0.00 | 0.00 | 46 | |
| 20260505150335 | 62 | 110 | 2.0 | 6.0 | 0.00 | 0.00 | 0.00 | 45 | |
| 20260505140332 | 62 | 93 | 3.0 | 8.0 | 0.00 | 0.00 | 0.00 | 45 | |
| 20260505124828 | 63 | 58 | 2.0 | 5.0 | 0.00 | 0.00 | 0.00 | 45 | |
| 20260505123827 | 63 | 90 | 3.0 | 7.0 | 0.00 | 0.00 | 0.00 | 44 | |
| 20260505123327 | 63 | 158 | 2.0 | 8.0 | 0.00 | 0.00 | 0.00 | 44 | |
| 20260505122827 | 64 | 21 | 4.0 | 10.0 | 0.00 | 0.00 | 0.00 | 42 | |
| 20260505122326 | 63 | 69 | 2.0 | 6.0 | 0.00 | 0.00 | 0.00 | 44 | |
| 20260505121826 | 63 | 108 | 3.0 | 8.0 | 0.00 | 0.00 | 0.00 | 42 | |
| 20260505121326 | 63 | 31 | 3.0 | 9.0 | 0.00 | 0.00 | 0.00 | 43 | |
| 20260505120825 | 63 | 63 | 3.0 | 9.0 | 0.00 | 0.00 | 0.00 | 44 | |
| 20260505120325 | 63 | 34 | 3.0 | 9.0 | 0.00 | 0.00 | 0.00 | 44 | |
| 20260505115825 | 61 | 25 | 3.0 | 6.0 | 0.00 | 0.00 | 0.00 | 46 | |
| 20260505115325 | 61 | 70 | 3.0 | 9.0 | 0.00 | 0.00 | 0.00 | 46 | |
| 20260505114824 | 62 | 44 | 2.0 | 6.0 | 0.00 | 0.00 | 0.00 | 47 | |
| 20260505114324 | 61 | 94 | 3.0 | 7.0 | 0.00 | 0.00 | 0.00 | 48 | |
| 20260505113824 | 61 | 80 | 1.0 | 7.0 | 0.00 | 0.00 | 0.00 | 48 |